SCP
0 0 0 0 0 0 0 0 0 0 0 0 0 0 0 0 0 0 0 0 0 0 0 0 0 0 0 0 0 0 0 0 0 0 0 0 0 0 0 0 0 0 0
0 0 0 0 0 0 0 0 0 0 0 0 0 0 0 0 0 0 0 0 0 0 0 0 0 0 0 0 0 0 0 0 0 0 0 0 0 0 0 0 0 0 0
0 0 0 0 0 0 0 0 0 0 0 0 0 0 0 0 0 0 0 0 0 0 0 0 0 0 0 0 0 0 0 0 0 0 0 0 0 0 0 0 0 0 0
0 0 0 0 0 0 0 0 0 0 0 0 0 0 0 0 0 0 0 0 0 0 0 0 0 0 0 0 0 0 0 0 0 0 0 0 0 0 0 0 0 0 0
0 0 0 0 0 0 0 0 0 0 0 0 0 0 0 0 0 0 0 0 0 0 0 0 0 0 0 0 0 0 0 0 0 0 0 0 0 0 0 0 0 0 0
0 0 0 0 0 0 0 0 0 0 0 0 0 0 0 0 0 0 0 0 0 0 0 0 0 0 0 0 0 0 0 0 0 0 0 0 0 0 0 0 0 0 0
0 0 0 0 0 0 0 0 0 0 0 0 0 0 0 0 0 0 0 0 0 0 0 0 0 0 0 0 0 0 0 0 0 0 0 0 0 0 0 0 0 0 0
0 0 0 0 0 0 0 0 0 0 0 0 0 0 0 0 0 0 0 0 0 0 0 0 0 0 0 0 0 0 0 0 0 0 0 0 0 0 0 0 0 0 0
0 0 0 0 0 0 0 0 0 0 0 0 0 0 0 0 0 0 0 0 0 0 0 0 0 0 0 0 0 0 0 0 0 0 0 0 0 0 0 0 0 0 0
0 0 0 0 0 0 0 0 0 0 0 0 0 0 0 0 0 0 0 0 0 0 0 0 0 0 0 0 0 0 0 0 0 0 0 0 0 0 0 0 0 0 0
0 0 0 0 0 0 0 0 0 0 0 0 0 0 0 0 0 0 0 0 0 0 0 0 0 0 0 0 0 0 0 0 0 0 0 0 0 0 0 0 0 0 0
0 0 0 0 0 0 0 0 0 0 0 0 0 0 0 0 0 0 0 0 0 0 0 0 0 0 0 0 0 0 0 0 0 0 0 0 0 0 0 0 0 0 0
0 0 0 0 0 0 0 0 0 0 0 0 0 0 0 0 0 0 0 0 0 0 0 0 0 0 0 0 0 0 0 0 0 0 0 0 0 0 0 0 0 0 0
0 0 0 0 0 0 0 0 0 0 0 0 0 0 0 0 0 0 0 0 0 0 0 0 0 0 0 0 0 0 0 0 0 0 0 0 0 0 0 0 0 0 0
0 0 0 0 0 0 0 0 0 0 0 0 0 0 0 0 0 0 0 0 0 0 0 0 0 0 0 0 0 0 0 0 0 0 0 0 0 0 0 0 0 0 0
0 0 0 0 0 0 0 0 0 0 0 0 0 0 0 0 0 0 0 0 0 0 0 0 0 0 0 0 0 0 0 0 0 0 0 0 0 0 0 0 0 0 0
0 0 0 0 0 0 0 0 0 0 0 0 0 0 0 0 0 0 0 0 0 0 0 0 0 0 0 0 0 0 0 0 0 0 0 0 0 0 0 0 0 0 0
0 0 0 0 0 0 0 0 0 0 0 0 0 0 0 0 0 0 0 0 0 0 0 0 0 0 0 0 0 0 0 0 0 0 0 0 0 0 0 0 0 0 0
0 0 0 0 0 0 0 0 0 0 0 0 0 0 0 0 0 0 0 0 0 0 0 0 0 0 0 0 0 0 0 0 0 0 0 0 0 0 0 0 0 -0 -0
0 0 0 0 0 0 0 0 0 0 0 0 0 0 0 0 0 0 0 0 0 0 0 0 0 0 0 0 0 0 0 0 0 0 0 0 0 0 0 0 0 -0 0
0 0 0 0 0 0 0 0 0 0 0 0 0 0 0 0 0 0 0 0 0 0 0 0 0 0 0 0 0 0 0 0 0 0 0 0 0 0 0 0 0 0 -0
0 0 0 0 0 0 0 0 0 0 0 0 0 0 0 0 0 0 0 0 0 0 0 0 0 0 0 0 0 0 0 0 0 0 0 0 0 0 0 0 -0 -0 -0
0 0 0 0 0 0 0 0 0 0 0 0 0 0 0 0 0 0 0 0 0 0 0 0 0 0 0 0 0 0 0 0 0 0 0 0 0 0 0 -0 -0 -0 -0
0 0 0 0 0 0 0 0 0 0 0 0 0 0 0 0 0 0 0 0 0 0 0 0 0 0 0 0 0 0 0 0 0 0 0 0 0 -0 -0 -0 -0 -0 -0
0 0 0 0 0 0 0 0 0 0 0 0 0 0 0 0 0 0 0 0 0 0 0 0 0 0 0 0 0 0 0 0 0 0 0 -0 -0 -0 -0 -0 -0 -0 -0
0 0 0 0 0 0 0 0 0 0 0 0 0 0 0 0 0 0 0 0 0 0 0 0 0 0 0 0 0 0 0 -0 -0 -0 -0 -0 -0 -0 -0 -0 -0 -0 -0
Wind_Speed_500mb
92 91 91 88 85 80 78 73 69 62 59 54 50 47 46 44 42 42 43 44 45 47 50 53 55 57 61 60 60 61 57 51 72 113 78 88 82 76 73 70 80 70 72
99 98 97 93 90 88 88 82 73 68 64 58 55 53 51 48 45 45 45 48 49 52 53 56 58 59 63 62 61 61 60 53 57 89 100 91 95 81 78 84 80 76 66
111 108 103 102 101 97 95 87 78 73 68 63 61 59 55 50 48 48 48 50 52 55 57 59 60 62 64 61 59 59 55 51 54 68 91 91 92 83 91 88 85 81 78
124 123 117 114 109 103 98 89 83 77 72 69 65 61 58 54 52 52 51 53 54 57 58 60 61 63 64 61 61 61 55 55 61 70 83 85 77 87 78 77 109 88 84
135 134 130 123 115 107 101 93 85 80 76 72 67 64 60 57 54 53 54 55 56 58 59 61 62 64 67 65 67 61 52 60 67 74 79 74 81 77 76 87 82 98 106
132 139 136 132 126 118 107 96 86 80 77 73 69 65 60 57 54 54 56 55 56 58 59 59 60 65 64 65 67 59 53 63 72 70 79 75 82 82 83 74 90 93 112
129 131 133 136 135 126 114 100 90 81 76 72 67 62 59 56 54 56 55 54 55 56 57 58 59 60 62 59 58 53 56 57 58 66 80 82 80 67 77 88 87 97 105
109 121 127 128 131 129 120 106 93 82 75 67 64 59 57 56 55 55 54 53 53 53 53 55 59 59 56 51 53 59 61 62 65 67 68 68 70 79 82 98 105 106 108
97 105 113 120 119 122 121 108 93 82 73 66 62 57 55 54 54 54 52 50 49 51 54 55 55 55 48 47 53 64 69 61 54 58 70 78 76 81 82 87 89 82 92
88 92 98 105 111 113 111 103 90 79 70 64 60 56 52 52 51 52 49 44 46 50 52 52 54 50 40 46 51 56 65 68 81 83 82 87 82 76 69 70 75 67 72
69 79 86 94 97 97 95 91 86 77 67 63 57 51 49 48 47 46 43 41 45 48 49 50 48 43 42 42 46 58 65 69 72 77 81 79 77 71 67 64 67 63 71
63 65 70 75 80 82 82 87 80 71 66 60 54 49 46 44 42 39 39 42 45 45 46 45 45 36 41 46 54 59 51 56 65 67 70 71 69 69 69 69 68 68 70
57 58 61 65 66 74 83 82 74 68 62 56 50 45 44 40 35 35 38 41 42 42 41 39 46 52 57 59 54 54 54 56 56 61 63 63 63 67 70 73 73 73 74
61 58 60 72 78 81 78 72 69 65 59 52 45 45 40 34 32 32 34 37 38 36 39 46 48 49 48 49 50 48 51 52 55 59 60 62 66 71 76 76 79 78 80
61 57 64 80 88 85 75 68 63 54 45 40 45 39 34 31 29 30 30 27 23 30 42 41 43 44 44 44 46 46 49 52 55 57 59 64 70 75 79 78 77 77 76
69 71 85 93 89 85 81 71 54 43 43 47 39 32 28 26 26 25 23 19 29 32 34 38 42 44 43 45 48 51 53 53 55 61 62 63 70 76 82 83 78 79 77
73 90 98 93 87 82 75 66 52 50 47 41 33 26 21 21 21 22 22 24 24 27 31 35 40 41 42 45 49 52 58 58 60 63 63 64 71 78 82 86 83 82 83
77 97 97 92 85 78 69 52 50 49 45 35 25 20 17 17 19 21 23 20 25 28 30 35 38 40 41 45 49 54 59 62 62 65 63 65 72 78 85 88 84 83 89
88 102 95 84 74 65 56 54 51 46 37 28 23 17 16 15 17 19 20 23 26 28 31 34 37 41 44 46 50 54 60 64 64 67 63 67 73 80 86 85 84 89 91
94 98 88 79 69 60 57 53 51 42 33 26 21 17 13 11 14 16 21 26 29 30 32 36 38 41 45 48 52 57 63 66 66 66 65 70 74 82 86 86 89 92 94
92 88 80 72 66 62 55 52 43 36 30 25 18 14 11 10 11 15 20 24 28 32 35 39 42 44 46 49 52 59 64 68 67 65 69 72 80 87 84 84 92 94 95
95 88 75 70 64 58 54 46 40 34 28 21 16 11 5 8 13 18 22 25 29 33 37 41 43 44 46 49 53 59 66 67 67 66 71 76 84 85 83 88 92 94 97
93 81 76 68 63 57 51 44 37 31 23 19 13 5 4 10 14 19 22 27 30 34 37 41 45 46 45 48 52 59 64 66 63 68 72 80 85 81 86 92 93 99 100
86 82 74 68 63 55 48 42 35 27 22 16 8 3 6 11 16 19 23 28 32 35 38 41 43 46 48 50 54 55 58 59 63 65 70 79 82 81 90 94 96 98 96
87 77 70 69 61 55 47 40 33 26 20 12 5 3 8 13 18 22 27 31 34 37 39 41 42 45 49 52 52 53 54 56 58 58 67 74 81 86 91 93 98 101 95
78 74 71 64 58 50 43 37 31 23 14 7 1 5 11 16 21 25 29 33 37 39 41 42 43 46 49 49 51 51 53 56 54 57 64 76 81 83 90 95 94 100 100
Wind_Direction_500mb
235 235 236 236 236 237 238 238 239 241 242 243 248 251 255 260 266 271 277 281 286 290 291 294 296 299 301 301 299 298 293 289 288 300 300 306 307 307 306 304 305 304 304
237 236 236 236 237 237 238 238 238 239 242 244 246 248 253 259 264 269 275 280 283 286 288 289 294 297 299 298 296 294 291 287 284 292 303 305 308 309 306 306 306 304 303
238 237 236 236 236 236 238 238 237 239 241 242 244 247 254 259 263 270 275 278 280 282 285 287 292 295 295 293 292 290 289 288 287 287 294 301 304 305 307 306 307 307 304
241 239 237 237 237 237 237 237 237 239 240 243 245 249 254 258 262 268 274 277 278 281 283 288 292 293 291 292 294 294 292 290 290 289 291 295 297 302 302 304 306 306 306
243 242 240 239 238 237 237 236 237 238 240 243 245 248 252 255 261 267 273 275 277 280 285 289 291 290 293 296 295 293 291 291 291 291 292 293 297 302 303 305 301 304 306
246 245 244 240 238 237 236 235 235 236 238 241 244 247 250 255 260 267 270 272 276 282 286 287 289 293 297 296 294 291 290 291 294 291 292 294 296 301 301 301 303 305 304
253 249 246 243 240 238 235 233 233 233 236 239 241 243 248 253 259 265 267 272 278 283 285 289 292 294 295 296 295 294 295 294 289 291 293 294 294 298 298 302 302 301 297
261 254 248 244 242 239 235 232 230 230 234 237 237 238 244 251 259 263 270 276 280 283 287 289 292 295 297 296 300 300 298 295 295 290 285 290 294 297 296 296 298 295 295
264 257 250 245 242 238 234 229 225 226 229 232 232 235 241 251 257 264 271 275 279 283 286 290 293 297 299 300 301 299 303 300 289 293 294 292 290 295 297 298 295 296 296
269 264 256 247 240 237 232 224 221 223 225 225 226 231 241 249 256 264 271 276 281 287 293 298 301 299 299 304 305 300 296 297 300 302 294 298 304 307 307 300 299 294 294
276 267 257 248 240 235 228 218 216 215 215 217 222 230 238 246 255 263 271 278 285 291 296 299 299 300 306 304 298 292 296 305 299 298 306 313 315 314 314 311 305 299 297
277 268 258 247 236 227 215 208 207 207 208 212 219 226 236 245 253 262 275 283 290 293 297 300 303 302 303 301 304 307 306 303 308 313 314 315 317 318 319 315 313 308 306
274 264 251 235 224 212 203 200 196 199 205 210 216 227 235 243 253 267 278 288 293 298 301 299 304 303 305 308 313 314 313 313 316 317 315 319 322 321 321 323 320 319 316
267 250 235 218 198 194 192 194 195 198 202 210 219 225 232 241 255 269 281 290 299 310 303 309 308 307 310 310 312 316 318 321 321 320 318 324 324 326 326 328 324 324 320
253 233 211 198 188 181 183 187 192 196 207 218 220 223 231 245 259 270 282 298 301 292 298 307 308 308 314 317 317 319 320 322 324 324 321 322 324 326 328 330 327 325 320
242 214 196 188 183 179 180 176 181 197 212 213 212 223 238 252 265 276 285 283 284 297 310 310 311 313 319 319 320 322 324 326 327 325 321 321 324 326 328 329 328 326 320
236 206 190 185 183 178 179 181 183 190 199 204 211 226 244 261 274 281 283 291 302 308 311 309 309 313 318 318 320 323 324 326 326 326 322 322 325 326 328 328 327 324 321
221 202 188 183 184 182 179 183 192 195 192 193 207 226 242 259 275 283 291 300 308 313 306 306 309 314 317 315 317 321 323 326 325 324 320 321 325 326 327 327 324 320 320
207 193 186 181 182 180 180 182 187 188 189 196 203 216 234 256 276 283 296 307 308 307 307 307 311 313 313 313 315 318 321 323 322 323 323 323 326 327 325 326 325 326 323
200 190 183 179 178 180 180 181 182 183 186 190 198 210 226 251 272 288 297 302 304 306 307 310 312 312 314 315 315 317 320 322 322 323 324 325 326 326 324 323 324 323 322
192 183 178 176 179 177 174 177 178 179 182 186 193 203 216 240 270 290 295 299 306 310 312 312 313 312 315 315 315 316 319 319 321 321 323 324 325 324 323 320 321 322 320
183 178 176 174 170 166 171 174 174 175 174 177 187 197 228 288 301 303 304 310 312 313 312 310 310 313 316 316 315 316 317 318 321 320 321 322 323 323 322 322 323 323 320
178 174 168 164 163 167 169 170 169 166 166 170 172 176 275 294 300 305 313 315 313 314 311 311 313 315 316 313 314 316 315 317 318 319 320 321 321 322 323 324 323 322 317
174 168 160 160 165 164 165 162 159 160 161 159 145 200 277 296 304 315 318 317 318 314 313 314 315 316 315 314 315 315 315 316 317 317 318 318 320 324 325 323 320 314 306
164 157 158 162 161 160 157 155 155 155 151 137 143 256 300 307 316 319 319 320 315 316 317 317 317 315 316 316 317 317 316 315 313 316 318 320 322 324 322 313 313 314 308
151 153 157 155 154 152 150 150 149 139 130 127 137 318 319 321 321 322 319 317 319 320 321 321 320 318 319 320 321 320 318 318 317 321 324 323 322 321 322 317 310 309 309
Wind_Speed_850mb
92 91 91 88 85 80 78 73 69 62 59 54 50 47 46 44 42 42 43 44 45 47 50 53 55 57 61 60 60 61 57 51 72 113 78 88 82 76 73 70 80 70 72
99 98 97 93 90 88 88 82 73 68 64 58 55 53 51 48 45 45 45 48 49 52 53 56 58 59 63 62 61 61 60 53 57 89 100 91 95 81 78 84 80 76 66
111 108 103 102 101 97 95 87 78 73 68 63 61 59 55 50 48 48 48 50 52 55 57 59 60 62 64 61 59 59 55 51 54 68 91 91 92 83 91 88 85 81 78
124 123 117 114 109 103 98 89 83 77 72 69 65 61 58 54 52 52 51 53 54 57 58 60 61 63 64 61 61 61 55 55 61 70 83 85 77 87 78 77 109 88 84
135 134 130 123 115 107 101 93 85 80 76 72 67 64 60 57 54 53 54 55 56 58 59 61 62 64 67 65 67 61 52 60 67 74 79 74 81 77 76 87 82 98 106
132 139 136 132 126 118 107 96 86 80 77 73 69 65 60 57 54 54 56 55 56 58 59 59 60 65 64 65 67 59 53 63 72 70 79 75 82 82 83 74 90 93 112
129 131 133 136 135 126 114 100 90 81 76 72 67 62 59 56 54 56 55 54 55 56 57 58 59 60 62 59 58 53 56 57 58 66 80 82 80 67 77 88 87 97 105
109 121 127 128 131 129 120 106 93 82 75 67 64 59 57 56 55 55 54 53 53 53 53 55 59 59 56 51 53 59 61 62 65 67 68 68 70 79 82 98 105 106 108
97 105 113 120 119 122 121 108 93 82 73 66 62 57 55 54 54 54 52 50 49 51 54 55 55 55 48 47 53 64 69 61 54 58 70 78 76 81 82 87 89 82 92
88 92 98 105 111 113 111 103 90 79 70 64 60 56 52 52 51 52 49 44 46 50 52 52 54 50 40 46 51 56 65 68 81 83 82 87 82 76 69 70 75 67 72
69 79 86 94 97 97 95 91 86 77 67 63 57 51 49 48 47 46 43 41 45 48 49 50 48 43 42 42 46 58 65 69 72 77 81 79 77 71 67 64 67 63 71
63 65 70 75 80 82 82 87 80 71 66 60 54 49 46 44 42 39 39 42 45 45 46 45 45 36 41 46 54 59 51 56 65 67 70 71 69 69 69 69 68 68 70
57 58 61 65 66 74 83 82 74 68 62 56 50 45 44 40 35 35 38 41 42 42 41 39 46 52 57 59 54 54 54 56 56 61 63 63 63 67 70 73 73 73 74
61 58 60 72 78 81 78 72 69 65 59 52 45 45 40 34 32 32 34 37 38 36 39 46 48 49 48 49 50 48 51 52 55 59 60 62 66 71 76 76 79 78 80
61 57 64 80 88 85 75 68 63 54 45 40 45 39 34 31 29 30 30 27 23 30 42 41 43 44 44 44 46 46 49 52 55 57 59 64 70 75 79 78 77 77 76
69 71 85 93 89 85 81 71 54 43 43 47 39 32 28 26 26 25 23 19 29 32 34 38 42 44 43 45 48 51 53 53 55 61 62 63 70 76 82 83 78 79 77
73 90 98 93 87 82 75 66 52 50 47 41 33 26 21 21 21 22 22 24 24 27 31 35 40 41 42 45 49 52 58 58 60 63 63 64 71 78 82 86 83 82 83
77 97 97 92 85 78 69 52 50 49 45 35 25 20 17 17 19 21 23 20 25 28 30 35 38 40 41 45 49 54 59 62 62 65 63 65 72 78 85 88 84 83 89
88 102 95 84 74 65 56 54 51 46 37 28 23 17 16 15 17 19 20 23 26 28 31 34 37 41 44 46 50 54 60 64 64 67 63 67 73 80 86 85 84 89 91
94 98 88 79 69 60 57 53 51 42 33 26 21 17 13 11 14 16 21 26 29 30 32 36 38 41 45 48 52 57 63 66 66 66 65 70 74 82 86 86 89 92 94
92 88 80 72 66 62 55 52 43 36 30 25 18 14 11 10 11 15 20 24 28 32 35 39 42 44 46 49 52 59 64 68 67 65 69 72 80 87 84 84 92 94 95
95 88 75 70 64 58 54 46 40 34 28 21 16 11 5 8 13 18 22 25 29 33 37 41 43 44 46 49 53 59 66 67 67 66 71 76 84 85 83 88 92 94 97
93 81 76 68 63 57 51 44 37 31 23 19 13 5 4 10 14 19 22 27 30 34 37 41 45 46 45 48 52 59 64 66 63 68 72 80 85 81 86 92 93 99 100
86 82 74 68 63 55 48 42 35 27 22 16 8 3 6 11 16 19 23 28 32 35 38 41 43 46 48 50 54 55 58 59 63 65 70 79 82 81 90 94 96 98 96
87 77 70 69 61 55 47 40 33 26 20 12 5 3 8 13 18 22 27 31 34 37 39 41 42 45 49 52 52 53 54 56 58 58 67 74 81 86 91 93 98 101 95
78 74 71 64 58 50 43 37 31 23 14 7 1 5 11 16 21 25 29 33 37 39 41 42 43 46 49 49 51 51 53 56 54 57 64 76 81 83 90 95 94 100 100
Wind_Direction_850mb
235 235 236 236 236 237 238 238 239 241 242 243 248 251 255 260 266 271 277 281 286 290 291 294 296 299 301 301 299 298 293 289 288 300 300 306 307 307 306 304 305 304 304
237 236 236 236 237 237 238 238 238 239 242 244 246 248 253 259 264 269 275 280 283 286 288 289 294 297 299 298 296 294 291 287 284 292 303 305 308 309 306 306 306 304 303
238 237 236 236 236 236 238 238 237 239 241 242 244 247 254 259 263 270 275 278 280 282 285 287 292 295 295 293 292 290 289 288 287 287 294 301 304 305 307 306 307 307 304
241 239 237 237 237 237 237 237 237 239 240 243 245 249 254 258 262 268 274 277 278 281 283 288 292 293 291 292 294 294 292 290 290 289 291 295 297 302 302 304 306 306 306
243 242 240 239 238 237 237 236 237 238 240 243 245 248 252 255 261 267 273 275 277 280 285 289 291 290 293 296 295 293 291 291 291 291 292 293 297 302 303 305 301 304 306
246 245 244 240 238 237 236 235 235 236 238 241 244 247 250 255 260 267 270 272 276 282 286 287 289 293 297 296 294 291 290 291 294 291 292 294 296 301 301 301 303 305 304
253 249 246 243 240 238 235 233 233 233 236 239 241 243 248 253 259 265 267 272 278 283 285 289 292 294 295 296 295 294 295 294 289 291 293 294 294 298 298 302 302 301 297
261 254 248 244 242 239 235 232 230 230 234 237 237 238 244 251 259 263 270 276 280 283 287 289 292 295 297 296 300 300 298 295 295 290 285 290 294 297 296 296 298 295 295
264 257 250 245 242 238 234 229 225 226 229 232 232 235 241 251 257 264 271 275 279 283 286 290 293 297 299 300 301 299 303 300 289 293 294 292 290 295 297 298 295 296 296
269 264 256 247 240 237 232 224 221 223 225 225 226 231 241 249 256 264 271 276 281 287 293 298 301 299 299 304 305 300 296 297 300 302 294 298 304 307 307 300 299 294 294
276 267 257 248 240 235 228 218 216 215 215 217 222 230 238 246 255 263 271 278 285 291 296 299 299 300 306 304 298 292 296 305 299 298 306 313 315 314 314 311 305 299 297
277 268 258 247 236 227 215 208 207 207 208 212 219 226 236 245 253 262 275 283 290 293 297 300 303 302 303 301 304 307 306 303 308 313 314 315 317 318 319 315 313 308 306
274 264 251 235 224 212 203 200 196 199 205 210 216 227 235 243 253 267 278 288 293 298 301 299 304 303 305 308 313 314 313 313 316 317 315 319 322 321 321 323 320 319 316
267 250 235 218 198 194 192 194 195 198 202 210 219 225 232 241 255 269 281 290 299 310 303 309 308 307 310 310 312 316 318 321 321 320 318 324 324 326 326 328 324 324 320
253 233 211 198 188 181 183 187 192 196 207 218 220 223 231 245 259 270 282 298 301 292 298 307 308 308 314 317 317 319 320 322 324 324 321 322 324 326 328 330 327 325 320
242 214 196 188 183 179 180 176 181 197 212 213 212 223 238 252 265 276 285 283 284 297 310 310 311 313 319 319 320 322 324 326 327 325 321 321 324 326 328 329 328 326 320
236 206 190 185 183 178 179 181 183 190 199 204 211 226 244 261 274 281 283 291 302 308 311 309 309 313 318 318 320 323 324 326 326 326 322 322 325 326 328 328 327 324 321
221 202 188 183 184 182 179 183 192 195 192 193 207 226 242 259 275 283 291 300 308 313 306 306 309 314 317 315 317 321 323 326 325 324 320 321 325 326 327 327 324 320 320
207 193 186 181 182 180 180 182 187 188 189 196 203 216 234 256 276 283 296 307 308 307 307 307 311 313 313 313 315 318 321 323 322 323 323 323 326 327 325 326 325 326 323
200 190 183 179 178 180 180 181 182 183 186 190 198 210 226 251 272 288 297 302 304 306 307 310 312 312 314 315 315 317 320 322 322 323 324 325 326 326 324 323 324 323 322
192 183 178 176 179 177 174 177 178 179 182 186 193 203 216 240 270 290 295 299 306 310 312 312 313 312 315 315 315 316 319 319 321 321 323 324 325 324 323 320 321 322 320
183 178 176 174 170 166 171 174 174 175 174 177 187 197 228 288 301 303 304 310 312 313 312 310 310 313 316 316 315 316 317 318 321 320 321 322 323 323 322 322 323 323 320
178 174 168 164 163 167 169 170 169 166 166 170 172 176 275 294 300 305 313 315 313 314 311 311 313 315 316 313 314 316 315 317 318 319 320 321 321 322 323 324 323 322 317
174 168 160 160 165 164 165 162 159 160 161 159 145 200 277 296 304 315 318 317 318 314 313 314 315 316 315 314 315 315 315 316 317 317 318 318 320 324 325 323 320 314 306
164 157 158 162 161 160 157 155 155 155 151 137 143 256 300 307 316 319 319 320 315 316 317 317 317 315 316 316 317 317 316 315 313 316 318 320 322 324 322 313 313 314 308
151 153 157 155 154 152 150 150 149 139 130 127 137 318 319 321 321 322 319 317 319 320 321 321 320 318 319 320 321 320 318 318 317 321 324 323 322 321 322 317 310 309 309